AFL1218 UGTB-URSS

Flight info

Callsign AFL1218
Flight time 0h 53m
Altitude 34000
Route DF N11 BARUS N37 ODILI BANUT
Aircraft A320/M-SDE3FGHIRWY/LB1

Departure

Time 2026-04-23 17:35
Airport Tbilisi International Airport (UGTB)

Arrival

Time 2026-04-23 18:29
Airport Sochi International Airport (URSS)
Time Latitude Longitude Altitude Speed Heading
2026-04-23 16:49 41.66898 44.96348 1523 ft 0 kts 43°
2026-04-23 17:27 41.66885 44.96331 1518 ft 2 kts 44°
2026-04-23 17:27 41.66874 44.96317 1527 ft 2 kts 44°
2026-04-23 17:27 41.66862 44.96301 1520 ft 2 kts 46°
2026-04-23 17:27 41.66851 44.96285 1521 ft 2 kts 52°
2026-04-23 17:28 41.66842 44.96266 1524 ft 2 kts 111°
2026-04-23 17:28 41.66847 44.96255 1520 ft 0 kts 134°
2026-04-23 17:28 41.66847 44.96254 1520 ft 0 kts 134°
2026-04-23 17:31 41.66820 44.96292 1524 ft 12 kts 134°
2026-04-23 17:31 41.66752 44.96390 1522 ft 17 kts 133°
2026-04-23 17:32 41.66724 44.96418 1524 ft 12 kts 152°
2026-04-23 17:32 41.66439 44.96345 1526 ft 21 kts 191°
2026-04-23 17:32 41.66294 44.96307 1521 ft 20 kts 191°
2026-04-23 17:33 41.66173 44.96321 1526 ft 16 kts 159°
2026-04-23 17:33 41.66085 44.96412 1522 ft 16 kts 136°
2026-04-23 17:33 41.65996 44.96526 1520 ft 20 kts 136°
2026-04-23 17:33 41.65906 44.96599 1525 ft 14 kts 175°
2026-04-23 17:34 41.65842 44.96522 1525 ft 10 kts 249°
2026-04-23 17:34 41.65861 44.96434 1525 ft 12 kts 316°
2026-04-23 17:34 41.65970 44.96299 1521 ft 55 kts 317°
2026-04-23 17:35 41.66417 44.95738 1524 ft 118 kts 317°
2026-04-23 17:35 41.67972 44.93793 2208 ft 163 kts 317°
2026-04-23 17:35 41.68802 44.92764 2886 ft 167 kts 317°
2026-04-23 17:36 41.69713 44.91638 3216 ft 189 kts 317°
2026-04-23 17:36 41.70730 44.90371 3560 ft 210 kts 317°
2026-04-23 17:36 41.71852 44.88978 3897 ft 231 kts 317°
2026-04-23 17:36 41.73095 44.87430 4272 ft 256 kts 317°
2026-04-23 17:37 41.74460 44.85736 4761 ft 279 kts 317°
2026-04-23 17:37 41.75855 44.83897 5583 ft 284 kts 309°
2026-04-23 17:37 41.78281 44.79783 7472 ft 283 kts 302°
2026-04-23 17:38 41.79463 44.77672 8449 ft 282 kts 302°
2026-04-23 17:38 41.80649 44.75563 9403 ft 282 kts 301°
2026-04-23 17:38 41.81838 44.73472 10280 ft 286 kts 301°
2026-04-23 17:38 41.83094 44.71272 10548 ft 309 kts 302°
2026-04-23 17:39 41.84448 44.68916 10968 ft 325 kts 302°
2026-04-23 17:39 41.85847 44.66510 11760 ft 329 kts 302°
2026-04-23 17:39 41.87267 44.64082 12571 ft 332 kts 302°
2026-04-23 17:39 41.88699 44.61636 13342 ft 334 kts 302°
2026-04-23 17:40 41.90078 44.59128 14045 ft 333 kts 295°
2026-04-23 17:40 41.91059 44.56385 14689 ft 329 kts 284°
2026-04-23 17:40 41.91587 44.53416 15352 ft 327 kts 273°
2026-04-23 17:40 41.91666 44.50372 16013 ft 326 kts 266°
2026-04-23 17:41 41.91650 44.47307 16670 ft 330 kts 267°
2026-04-23 17:41 41.91646 44.41096 18079 ft 333 kts 267°
2026-04-23 17:41 41.91650 44.37976 18676 ft 335 kts 268°
2026-04-23 17:42 41.91649 44.31691 19815 ft 339 kts 268°
2026-04-23 17:42 41.91643 44.28520 20369 ft 341 kts 267°
2026-04-23 17:42 41.91631 44.25330 20908 ft 343 kts 267°
2026-04-23 17:43 41.91620 44.22123 21437 ft 345 kts 267°
2026-04-23 17:43 41.91608 44.18896 21934 ft 347 kts 268°
2026-04-23 17:43 41.91596 44.15647 22443 ft 349 kts 268°
2026-04-23 17:43 41.91586 44.12372 22970 ft 351 kts 268°
2026-04-23 17:44 41.91577 44.09082 23466 ft 354 kts 268°
2026-04-23 17:44 41.91565 44.05768 23874 ft 356 kts 267°
2026-04-23 17:44 41.91534 43.99142 24746 ft 359 kts 267°
2026-04-23 17:45 41.91514 43.95805 25235 ft 351 kts 267°
2026-04-23 17:45 41.91470 43.89208 26017 ft 355 kts 267°
2026-04-23 17:45 41.91449 43.85886 26412 ft 357 kts 267°
2026-04-23 17:46 41.91409 43.79194 27205 ft 359 kts 267°
2026-04-23 17:46 41.91389 43.75827 27591 ft 361 kts 267°
2026-04-23 17:46 41.91367 43.72449 28009 ft 362 kts 267°
2026-04-23 17:47 41.91359 43.71304 28144 ft 363 kts 267°
2026-04-23 17:47 41.91263 43.59152 29406 ft 367 kts 267°
2026-04-23 17:48 41.91234 43.55718 29733 ft 369 kts 267°
2026-04-23 17:48 41.91204 43.52264 30085 ft 371 kts 267°
2026-04-23 17:48 41.91175 43.48797 30374 ft 372 kts 267°
2026-04-23 17:48 41.91145 43.45319 30667 ft 372 kts 267°
2026-04-23 17:49 41.91111 43.41837 30932 ft 374 kts 267°
2026-04-23 17:49 41.91074 43.38342 31212 ft 375 kts 266°
2026-04-23 17:49 41.91035 43.34850 31571 ft 373 kts 266°
2026-04-23 17:49 41.90996 43.31371 31962 ft 372 kts 266°
2026-04-23 17:50 41.90956 43.27909 32347 ft 370 kts 266°
2026-04-23 17:50 41.90880 43.21032 33114 ft 367 kts 266°
2026-04-23 17:50 41.90842 43.17613 33513 ft 366 kts 266°
2026-04-23 17:51 41.90802 43.14196 33875 ft 365 kts 266°
2026-04-23 17:51 41.90769 43.10805 33939 ft 361 kts 268°
2026-04-23 17:51 41.92244 43.04330 33957 ft 371 kts 288°
2026-04-23 17:52 41.93366 43.01261 33959 ft 371 kts 289°
2026-04-23 17:52 41.96814 42.91945 33989 ft 371 kts 288°
2026-04-23 17:53 42.00244 42.82591 33974 ft 372 kts 288°
2026-04-23 17:54 42.02523 42.76344 33996 ft 372 kts 288°
2026-04-23 17:54 42.05918 42.67007 34017 ft 369 kts 288°
2026-04-23 17:55 42.09289 42.57718 34014 ft 367 kts 288°
2026-04-23 17:56 42.11525 42.51542 34010 ft 367 kts 288°
2026-04-23 17:56 42.14866 42.42278 34032 ft 366 kts 288°
2026-04-23 17:57 42.17089 42.36114 34029 ft 365 kts 288°
2026-04-23 17:58 42.20410 42.26880 34021 ft 365 kts 288°
2026-04-23 17:58 42.22594 42.20761 34015 ft 364 kts 288°
2026-04-23 17:59 42.24796 42.14595 34017 ft 365 kts 287°
2026-04-23 17:59 42.27001 42.08404 33999 ft 366 kts 287°
2026-04-23 18:00 42.29205 42.02196 33992 ft 367 kts 287°
2026-04-23 18:00 42.31412 41.95973 33992 ft 367 kts 287°
2026-04-23 18:01 42.33619 41.89746 34019 ft 368 kts 286°
2026-04-23 18:01 42.35819 41.83503 33994 ft 368 kts 286°
2026-04-23 18:02 42.38029 41.77244 33990 ft 369 kts 286°
2026-04-23 18:02 42.40233 41.70978 33989 ft 369 kts 286°
2026-04-23 18:02 42.41335 41.67843 33839 ft 368 kts 286°
2026-04-23 18:03 42.42433 41.64718 33154 ft 367 kts 286°
2026-04-23 18:03 42.43511 41.61651 32582 ft 364 kts 286°
2026-04-23 18:03 42.44591 41.58572 32035 ft 360 kts 286°
2026-04-23 18:03 42.45659 41.55520 31504 ft 357 kts 286°
2026-04-23 18:04 42.46715 41.52496 30986 ft 354 kts 286°
2026-04-23 18:04 42.47761 41.49495 30473 ft 351 kts 286°
2026-04-23 18:04 42.48797 41.46520 29957 ft 348 kts 286°
2026-04-23 18:04 42.49821 41.43571 29369 ft 345 kts 286°
2026-04-23 18:05 42.50838 41.40639 28768 ft 342 kts 286°
2026-04-23 18:05 42.51848 41.37734 28192 ft 340 kts 286°
2026-04-23 18:05 42.52850 41.34844 27616 ft 337 kts 286°
2026-04-23 18:05 42.53844 41.31976 27062 ft 336 kts 286°
2026-04-23 18:06 42.54835 41.29118 26494 ft 334 kts 286°
2026-04-23 18:06 42.55822 41.26266 25957 ft 332 kts 286°
2026-04-23 18:06 42.56801 41.23435 25426 ft 331 kts 285°
2026-04-23 18:06 42.57771 41.20616 24903 ft 329 kts 285°
2026-04-23 18:07 42.58736 41.17810 24390 ft 327 kts 285°
2026-04-23 18:07 42.59697 41.15018 23890 ft 326 kts 286°
2026-04-23 18:07 42.60655 41.12232 23372 ft 325 kts 285°
2026-04-23 18:07 42.61607 41.09461 22831 ft 323 kts 285°
2026-04-23 18:08 42.62235 41.07631 22485 ft 322 kts 285°
2026-04-23 18:08 42.63481 41.04000 21887 ft 319 kts 285°
2026-04-23 18:08 42.64411 41.01287 21446 ft 315 kts 285°
2026-04-23 18:08 42.65332 40.98591 20983 ft 313 kts 284°
2026-04-23 18:09 42.66245 40.95917 20524 ft 312 kts 284°
2026-04-23 18:09 42.67154 40.93251 20061 ft 310 kts 284°
2026-04-23 18:09 42.68059 40.90601 19616 ft 309 kts 284°
2026-04-23 18:09 42.68960 40.87963 19173 ft 307 kts 284°
2026-04-23 18:10 42.69857 40.85334 18738 ft 306 kts 283°
2026-04-23 18:10 42.70749 40.82716 18308 ft 305 kts 283°
2026-04-23 18:10 42.71635 40.80107 17840 ft 303 kts 284°
2026-04-23 18:10 42.72516 40.77514 17394 ft 301 kts 284°
2026-04-23 18:11 42.73393 40.74938 17000 ft 299 kts 284°
2026-04-23 18:11 42.74261 40.72382 16595 ft 296 kts 285°
2026-04-23 18:11 42.75120 40.69846 16192 ft 294 kts 285°
2026-04-23 18:11 42.75972 40.67328 15801 ft 292 kts 285°
2026-04-23 18:12 42.76819 40.64824 15411 ft 290 kts 286°
2026-04-23 18:12 42.77660 40.62334 15051 ft 289 kts 286°
2026-04-23 18:12 42.78496 40.59850 14978 ft 288 kts 286°
2026-04-23 18:12 42.79328 40.57364 14987 ft 289 kts 286°
2026-04-23 18:13 42.80161 40.54870 14989 ft 289 kts 286°
2026-04-23 18:13 42.80999 40.52374 14989 ft 290 kts 286°
2026-04-23 18:13 42.81839 40.49881 14988 ft 290 kts 286°
2026-04-23 18:13 42.82678 40.47390 14989 ft 290 kts 286°
2026-04-23 18:14 42.83518 40.44894 15007 ft 290 kts 287°
2026-04-23 18:14 42.84359 40.42389 14935 ft 292 kts 287°
2026-04-23 18:14 42.85205 40.39862 14575 ft 291 kts 287°
2026-04-23 18:14 42.86006 40.37473 14239 ft 289 kts 288°
2026-04-23 18:15 42.86275 40.36673 14113 ft 289 kts 288°
2026-04-23 18:15 42.87107 40.34187 13724 ft 288 kts 288°
2026-04-23 18:15 42.87938 40.31702 13269 ft 288 kts 289°
2026-04-23 18:15 42.88767 40.29217 12826 ft 287 kts 289°
2026-04-23 18:16 42.89591 40.26739 12394 ft 287 kts 289°
2026-04-23 18:16 42.90413 40.24263 11978 ft 286 kts 289°
2026-04-23 18:16 42.91233 40.21793 11551 ft 286 kts 290°
2026-04-23 18:17 42.92872 40.16858 10724 ft 285 kts 290°
2026-04-23 18:17 42.93681 40.14425 10488 ft 286 kts 291°
2026-04-23 18:17 42.94504 40.11948 10236 ft 287 kts 291°
2026-04-23 18:17 42.95327 40.09472 9984 ft 286 kts 291°
2026-04-23 18:18 42.96141 40.07027 9735 ft 279 kts 291°
2026-04-23 18:18 42.96932 40.04646 9462 ft 272 kts 291°
2026-04-23 18:18 42.97705 40.02307 9191 ft 268 kts 291°
2026-04-23 18:18 42.98469 39.99987 8921 ft 267 kts 291°
2026-04-23 18:19 42.99176 39.97656 8653 ft 265 kts 285°
2026-04-23 18:19 42.99731 39.95255 8385 ft 264 kts 285°
2026-04-23 18:19 43.00286 39.92860 8115 ft 264 kts 285°
2026-04-23 18:19 43.00842 39.90472 7863 ft 264 kts 285°
2026-04-23 18:20 43.01397 39.88086 7606 ft 263 kts 285°
2026-04-23 18:20 43.01951 39.85705 7350 ft 263 kts 286°
2026-04-23 18:20 43.02505 39.83324 7106 ft 263 kts 286°
2026-04-23 18:20 43.03140 39.80987 6806 ft 263 kts 298°
2026-04-23 18:21 43.04336 39.79107 6416 ft 266 kts 322°
2026-04-23 18:21 43.06018 39.78066 6011 ft 269 kts 347°
2026-04-23 18:21 43.07890 39.78085 5597 ft 271 kts
2026-04-23 18:21 43.09755 39.78476 5192 ft 271 kts
2026-04-23 18:22 43.11610 39.78876 4814 ft 269 kts
2026-04-23 18:22 43.13451 39.79277 4403 ft 267 kts
2026-04-23 18:22 43.15282 39.79672 4028 ft 265 kts
2026-04-23 18:22 43.17069 39.80054 3648 ft 262 kts
2026-04-23 18:23 43.18287 39.80312 3382 ft 261 kts
2026-04-23 18:23 43.22390 39.81188 2684 ft 247 kts
2026-04-23 18:24 43.25599 39.81873 2426 ft 217 kts
2026-04-23 18:24 43.27035 39.82246 2284 ft 204 kts 19°
2026-04-23 18:24 43.28265 39.83077 2146 ft 192 kts 27°
2026-04-23 18:25 43.30526 39.84784 2003 ft 183 kts 27°
2026-04-23 18:25 43.31641 39.85619 2006 ft 182 kts 27°
2026-04-23 18:25 43.32753 39.86452 2036 ft 182 kts 27°
2026-04-23 18:25 43.33866 39.87284 2011 ft 182 kts 27°
2026-04-23 18:26 43.34961 39.88103 1872 ft 177 kts 28°
2026-04-23 18:26 43.36027 39.88902 1673 ft 170 kts 28°
2026-04-23 18:26 43.37051 39.89669 1451 ft 166 kts 28°
2026-04-23 18:26 43.38055 39.90421 1231 ft 162 kts 28°
2026-04-23 18:27 43.38994 39.91125 1018 ft 147 kts 28°
2026-04-23 18:27 43.39867 39.91781 835 ft 140 kts 29°
2026-04-23 18:27 43.40712 39.92419 682 ft 138 kts 28°
2026-04-23 18:27 43.41548 39.93035 518 ft 136 kts 29°
2026-04-23 18:28 43.42371 39.93661 348 ft 135 kts 28°
2026-04-23 18:28 43.42919 39.94068 219 ft 135 kts 28°
2026-04-23 18:28 43.43733 39.94680 69 ft 127 kts 30°
2026-04-23 18:28 43.44391 39.95181 81 ft 85 kts 30°
2026-04-23 18:29 43.44758 39.95454 87 ft 35 kts 28°
2026-04-23 18:29 43.44908 39.95572 89 ft 22 kts 28°
2026-04-23 18:29 43.45017 39.95537 91 ft 15 kts 334°
2026-04-23 18:29 43.45058 39.95485 92 ft 10 kts 276°
2026-04-23 18:30 43.45055 39.95464 91 ft 6 kts 256°
2026-04-23 18:30 43.45016 39.95344 88 ft 20 kts 245°
2026-04-23 18:30 43.44963 39.95184 87 ft 20 kts 245°
2026-04-23 18:30 43.44922 39.95078 86 ft 13 kts 243°
2026-04-23 18:31 43.44877 39.94943 70 ft 18 kts 246°
2026-04-23 18:31 43.44825 39.94789 67 ft 15 kts 244°
2026-04-23 18:31 43.44777 39.94651 70 ft 17 kts 244°
2026-04-23 18:31 43.44759 39.94565 75 ft 6 kts 302°
2026-04-23 18:32 43.44815 39.94521 69 ft 11 kts 335°
2026-04-23 18:32 43.44854 39.94496 70 ft 3 kts 334°
2026-04-23 18:32 43.44855 39.94496 70 ft 0 kts 334°